Orbital Elements at Epoch 2459000.5 (2020-May-31.0) TDB
Reference: JPL 19 (heliocentric ecliptic J2000)
Element | Value | Uncertainty (1-sigma) | Units |
e | .1050820394408157 | 4.8657e-08 | |
a | 2.68003061474853 | 2.0586e-08 | au |
q | 2.398407531986932 | 1.3478e-07 | au |
i | 5.805624794853654 | 4.6292e-06 | deg |
node | 107.8112416931973 | 5.1909e-05 | deg |
peri | 219.6594752521568 | 5.5641e-05 | deg |
M | 218.9173973132463 | 2.1634e-05 | deg |
tp | 2459628.528021627730 (2022-Feb-18.02802163) | 9.863e-05 | TDB |
period | 1602.536978198308 4.39 | 1.8464e-05 5.055e-08 | d yr |
n | .2246438022320952 | 2.5883e-09 | deg/d |
Q | 2.961653697510128 | 2.2749e-08 | au |
|
| | Orbit Determination Parameters
Additional Information
|